Location: Fontevrault
(47.1823°N, 0.0493°E)
Time: 04:30:56
(UTC+00:00)

Uosat 12 SS-18 rocket - Pass Details

Date: 24 October 2021
Orbit: 579 x 1405 km, 64.6° (Epoch: 01 December)

Event Time Altitude Azimuth Distance (km) Brightness Sun altitude
Rises 20:35:41 0° 311° (NW) 3,580 8.9 -37.3°
Reaches altitude 10° 20:38:51 10° 329° (NNW) 2,787 7.9 -37.8°
Enters shadow 20:43:07 20° 9° (N) 2,322 7.0 -38.4°
